Theta_e
327 328 329 328 325 322 324 327 327 323 320 318 318 318 319 322 325 327 327 326 324 325 326 328 329 329 330 331 334 337 339 339 339 339 339 339 340 340 340 341 342 341 342 343 343 343 343 341 338 338 338 337 336 337 336 336 336 335 335 335 334 334 333 333 332 332 332 333 333 334 336 337 338 337
327 327 328 327 324 323 324 324 322 319 318 317 318 319 320 321 323 325 326 325 324 324 325 325 327 328 329 330 331 334 338 339 339 339 339 338 338 338 339 341 341 342 343 343 342 343 344 342 339 338 339 338 336 336 336 335 335 335 335 334 334 334 333 333 332 332 332 332 333 334 336 337 337 336
326 326 327 326 323 322 323 322 320 318 318 317 318 319 320 321 321 322 324 324 324 324 324 324 324 325 326 328 330 331 334 337 338 339 339 339 338 338 338 340 341 342 343 342 342 342 342 340 338 338 339 338 335 334 334 334 334 333 333 333 332 332 332 332 332 332 332 332 332 334 336 336 336 336
327 326 325 325 323 323 323 322 320 318 318 317 318 318 319 319 320 321 322 323 323 323 324 324 325 325 325 327 329 331 331 333 336 338 338 338 339 339 339 339 339 341 342 342 342 341 339 337 336 337 339 338 336 334 332 332 332 332 332 332 332 332 333 333 332 332 331 331 331 334 335 335 335 337
329 328 327 325 324 324 324 322 320 318 318 317 317 317 318 318 319 320 321 322 322 322 323 324 324 326 326 326 327 329 331 331 333 335 336 338 339 340 339 339 339 340 341 342 342 341 340 337 336 338 339 337 336 335 333 332 331 332 332 333 333 333 334 335 335 334 332 331 331 333 334 335 336 338
329 329 329 327 325 325 325 323 321 319 318 318 317 317 318 318 319 319 319 320 321 322 322 323 324 325 326 327 327 328 331 331 331 332 334 337 339 339 339 338 338 338 339 341 341 340 341 339 338 340 341 337 335 336 336 334 333 334 334 334 333 332 333 336 337 336 335 332 331 332 334 335 337 339
328 329 330 328 326 326 326 325 323 320 318 318 318 317 317 318 318 319 319 320 321 322 322 322 323 325 325 326 327 328 331 332 332 332 333 336 338 338 338 339 338 338 339 341 341 340 340 340 339 341 341 337 335 335 336 336 336 335 335 335 333 331 332 336 338 338 336 333 331 332 333 335 338 339
327 328 328 327 327 327 328 327 326 323 319 318 319 318 318 318 318 319 320 320 321 323 323 321 322 324 325 326 327 328 331 332 332 332 332 334 336 337 337 338 339 339 339 341 341 340 340 340 341 341 340 337 336 335 335 336 336 336 336 334 332 331 333 337 339 338 337 334 332 332 333 336 339 339
324 324 324 325 327 328 329 328 328 326 322 321 321 320 320 320 319 319 319 321 322 323 323 321 322 323 325 326 327 328 331 332 332 332 332 333 334 335 336 336 337 338 338 340 341 340 340 342 342 341 340 339 338 336 336 335 336 336 335 333 332 332 335 338 338 337 335 333 332 333 335 338 339 339
320 321 323 325 328 329 328 328 328 327 326 325 324 322 322 322 321 319 319 321 323 324 322 321 322 324 325 326 327 329 330 332 333 333 333 333 333 334 336 337 336 336 336 337 338 338 338 339 339 339 339 339 338 338 337 337 336 336 334 333 333 334 336 338 338 337 335 334 334 335 337 339 339 338
319 321 323 325 328 328 328 327 327 327 327 327 324 322 324 324 322 320 319 321 323 323 322 321 321 323 324 325 327 328 330 331 333 334 335 335 334 334 337 339 339 338 337 336 336 336 336 336 337 337 336 336 337 337 338 338 337 336 335 334 335 336 336 337 338 338 337 336 337 338 339 339 337 336
320 320 322 325 326 326 327 327 327 328 328 326 324 323 324 324 323 321 320 322 323 322 321 321 321 323 324 325 326 328 329 330 332 333 334 335 335 335 336 338 339 340 339 338 338 338 337 337 338 338 337 337 337 337 337 338 339 337 336 336 336 337 337 337 338 338 338 338 338 339 339 337 336 335
320 320 322 324 325 325 325 326 326 327 327 326 324 324 324 323 322 321 322 322 322 321 321 321 322 323 324 325 326 327 328 329 331 333 333 334 335 336 336 336 337 339 340 340 340 339 339 338 339 339 338 338 338 337 336 338 339 338 336 336 337 337 337 337 337 338 338 338 339 338 337 336 335 335
321 321 322 323 324 323 323 323 324 325 326 325 324 324 323 322 322 322 322 321 319 319 320 321 322 323 324 325 325 326 327 328 329 331 332 333 334 336 337 336 336 337 337 338 338 338 339 340 340 339 338 338 338 338 337 337 338 338 337 337 337 337 337 338 338 338 338 339 338 337 336 335 335 334
321 321 322 322 322 322 322 322 323 324 325 324 323 323 322 321 322 322 321 320 318 318 320 321 322 323 324 324 325 325 326 326 328 330 332 333 335 335 336 337 337 337 336 336 336 336 338 339 340 340 338 338 338 338 336 336 338 339 338 337 337 337 337 338 338 338 338 338 337 336 335 335 333 332
321 321 321 322 322 322 322 322 322 323 323 322 322 322 321 321 322 322 320 318 318 319 320 320 322 323 324 324 324 325 325 326 327 328 330 332 334 335 336 337 337 337 337 336 335 335 336 338 339 340 339 339 339 338 336 337 338 339 339 337 337 337 337 338 338 338 338 337 336 336 335 333 332 332
322 321 321 321 320 320 321 321 321 321 321 320 321 321 321 322 322 321 319 318 318 319 320 321 322 323 324 324 324 324 325 325 326 327 329 331 333 334 335 336 337 337 337 337 337 336 336 337 339 340 340 340 339 338 336 337 340 341 340 338 337 338 337 338 337 337 336 335 336 335 334 333 333 333
322 322 321 321 320 319 320 321 321 320 320 320 321 321 322 322 322 321 319 318 317 318 319 321 322 324 325 325 325 325 326 326 326 327 328 330 332 333 334 334 336 337 337 338 338 338 337 338 339 340 340 340 340 339 337 338 340 342 341 339 338 338 337 336 336 335 334 335 336 335 333 333 334 334
322 322 322 322 321 319 320 321 321 320 320 320 321 321 322 323 323 321 319 317 316 317 318 319 322 324 325 325 326 326 326 327 327 327 327 329 331 332 334 334 335 337 338 338 339 339 337 337 339 340 339 339 340 339 338 338 339 341 341 340 338 338 338 337 336 335 335 335 335 335 334 335 335 335
321 322 322 322 322 320 320 322 322 320 319 320 321 321 322 323 323 321 319 317 316 316 317 319 322 323 323 323 324 325 327 327 327 328 328 328 329 331 333 334 334 336 338 339 339 339 338 337 339 339 338 340 340 339 339 339 339 339 340 340 339 338 338 337 337 337 336 336 335 334 335 335 335 336
320 321 322 322 322 321 320 321 321 319 320 321 321 321 322 324 324 321 319 318 317 317 317 318 320 320 320 320 321 323 325 327 328 329 329 329 329 330 332 334 334 335 338 339 339 340 339 338 338 339 340 340 340 339 339 338 338 338 338 338 339 339 338 338 337 338 338 337 336 335 335 335 336 336
320 321 322 322 322 321 320 319 318 319 320 321 321 322 323 324 324 322 320 318 317 318 318 318 318 318 318 319 320 322 324 326 328 329 331 331 330 330 332 334 335 335 337 339 339 340 339 338 339 341 342 343 341 340 339 339 338 338 337 337 337 338 339 338 337 338 340 340 340 338 338 337 337 337
321 320 321 323 322 321 319 317 318 320 322 322 322 323 324 324 324 323 320 319 319 319 318 318 317 317 318 319 320 321 323 325 328 330 332 332 331 330 331 334 335 336 337 338 339 339 339 339 340 341 343 344 342 340 339 339 339 338 338 337 337 337 339 339 338 338 340 342 342 341 340 339 338 338
321 321 321 322 322 321 318 317 319 322 323 323 323 323 324 325 324 323 321 321 321 319 318 317 317 317 318 320 321 322 323 324 327 331 333 333 333 331 331 333 335 336 337 338 338 339 339 339 340 341 342 343 343 342 341 339 339 339 338 338 338 339 340 340 339 337 338 341 342 341 340 339 338 338
321 321 321 322 322 320 318 318 320 322 324 324 324 324 324 324 324 324 322 321 321 319 318 318 317 316 318 320 322 322 322 323 326 330 333 334 334 332 331 333 335 336 337 337 338 338 339 339 339 341 342 343 343 342 342 342 340 339 340 340 340 340 341 340 339 339 339 340 340 340 339 339 338 337
320 321 321 321 321 320 319 320 323 324 324 324 324 324 323 323 323 324 323 321 320 319 318 317 317 316 317 320 321 322 322 322 325 329 332 334 334 332 331 332 334 336 337 337 337 338 339 339 339 341 342 342 342 342 343 344 344 342 341 341 341 340 341 342 342 342 341 341 340 340 340 339 337 336
320 321 321 321 321 320 320 322 324 324 324 324 324 323 322 322 323 323 323 322 320 320 318 317 316 316 316 319 321 321 321 321 323 328 332 334 334 333 331 331 333 335 335 336 337 338 339 339 339 340 341 341 341 343 343 343 344 343 341 341 342 342 342 343 344 345 345 344 344 343 341 338 336 335
319 320 320 321 321 321 322 324 324 324 324 324 323 322 322 322 322 323 324 322 321 321 319 317 316 316 316 318 321 322 321 321 322 326 331 334 335 335 333 332 332 334 334 335 337 338 339 339 339 339 341 341 341 342 342 342 343 344 343 342 342 343 344 344 345 346 347 348 347 345 341 337 336 336
319 320 321 321 321 322 324 324 324 324 324 323 322 322 322 322 323 323 323 323 322 321 319 317 316 316 316 318 321 322 320 320 321 325 330 334 336 336 335 333 333 334 334 334 335 337 338 338 338 338 340 341 341 341 341 341 342 343 344 344 343 343 344 345 346 347 347 348 347 344 340 337 337 337
319 320 321 321 322 323 323 323 323 323 322 322 321 322 322 322 322 322 322 322 322 321 319 317 316 316 316 318 320 321 320 319 320 323 328 333 336 337 337 336 335 335 335 334 334 336 338 337 337 338 339 340 340 340 341 341 342 342 343 344 343 342 343 345 346 347 347 347 346 343 340 338 338 337
319 320 321 322 323 323 322 323 323 322 321 321 321 321 321 321 320 321 321 323 322 320 319 318 316 316 316 317 318 320 320 319 319 320 325 331 336 337 338 338 337 336 336 335 334 335 337 337 336 337 340 341 340 340 340 341 342 342 342 343 343 343 344 344 346 347 347 346 344 341 339 338 338 338
319 320 321 323 323 322 322 322 322 321 321 321 320 320 320 320 320 320 321 322 322 321 320 318 317 316 316 316 317 319 321 320 318 318 322 328 334 337 338 338 339 338 337 336 336 336 336 336 335 336 338 340 341 340 340 342 343 342 341 342 342 343 344 345 346 347 346 344 343 340 339 339 338 338
320 321 322 323 322 322 321 321 320 320 320 320 319 319 319 319 319 320 320 321 322 322 320 319 318 316 316 316 316 317 319 321 319 317 318 322 328 334 337 336 337 339 339 337 337 336 336 336 336 336 338 340 340 339 339 340 341 341 341 342 343 343 344 345 345 346 345 344 343 342 341 340 339 339
321 322 322 322 322 321 321 320 320 319 319 319 319 319 319 318 319 319 320 320 321 321 321 320 319 318 316 316 316 316 317 320 319 316 316 318 321 324 328 330 332 335 338 339 338 336 336 337 338 338 339 339 338 338 339 340 340 341 341 342 342 342 343 344 344 344 345 344 344 343 342 341 340 340
322 321 321 321 321 320 320 319 319 318 318 318 318 318 318 318 318 318 319 320 320 321 321 321 320 319 317 316 316 316 316 318 320 317 315 316 318 319 320 322 325 328 332 336 338 339 338 338 338 339 339 339 339 339 340 340 340 341 340 340 339 340 341 342 342 343 344 345 344 344 343 341 341 340
320 320 320 320 320 319 318 318 318 317 317 317 318 318 317 317 317 317 318 319 319 320 321 321 321 321 320 318 317 316 316 317 319 319 317 315 316 318 318 319 320 322 325 329 334 339 340 339 339 339 338 338 340 341 341 340 340 340 339 338 338 338 339 340 341 343 344 345 344 344 343 342 342 341
319 319 319 318 318 318 317 317 317 316 316 316 316 316 316 315 315 316 316 317 318 319 320 321 321 321 321 320 319 318 317 316 317 319 320 318 316 317 318 318 318 319 321 324 328 334 338 339 340 340 339 339 340 340 340 339 339 338 338 338 339 340 340 340 341 342 344 344 344 344 343 341 340 338
318 318 317 316 316 316 316 316 315 315 315 315 315 315 315 314 314 315 315 316 317 318 319 320 320 321 321 321 320 320 319 317 315 317 319 320 317 316 317 318 318 318 319 321 323 327 330 335 339 339 338 338 339 338 338 338 338 337 338 338 339 340 341 341 341 341 342 343 343 343 342 340 338 336
317 316 315 314 315 315 314 314 314 314 314 314 313 313 313 313 313 313 314 314 315 316 317 318 319 320 320 320 321 321 319 317 315 316 318 319 320 318 317 318 318 317 317 319 320 322 324 327 332 334 335 336 336 336 336 336 335 336 338 339 339 339 340 341 341 341 342 342 342 341 340 339 337 336
314 314 313 313 314 314 313 312 312 312 312 312 311 311 311 311 311 311 311 312 312 313 315 316 317 318 319 319 320 321 320 318 317 317 316 317 319 320 319 318 318 318 317 317 317 319 320 322 324 327 329 329 330 332 333 333 333 335 337 338 339 340 340 340 341 341 341 341 341 341 340 339 338 337
312 311 312 312 313 313 312 311 311 311 311 311 310 309 309 309 309 309 309 309 309 310 311 313 314 316 317 318 318 319 320 320 320 319 318 316 316 318 318 318 318 319 319 318 317 317 318 319 321 322 323 325 327 328 329 327 327 329 332 333 335 338 339 340 340 340 340 340 340 340 340 339 339 339
310 310 310 311 311 311 311 310 310 310 310 309 309 308 308 308 307 307 307 307 307 307 308 309 311 312 314 316 316 317 318 319 319 320 320 319 317 317 317 319 320 319 319 320 319 317 316 317 319 320 321 322 324 324 323 321 320 320 322 325 327 330 333 334 335 336 337 339 339 340 340 339 339 339
309 309 309 309 309 309 309 309 309 308 308 308 307 307 307 307 307 307 306 306 306 306 306 306 308 309 311 312 314 315 316 316 317 318 320 320 319 320 320 321 322 321 320 320 321 320 317 316 316 317 318 319 320 320 320 319 319 318 319 319 320 321 323 326 327 330 332 335 336 338 339 339 339 338
309 308 309 308 307 307 307 307 307 307 307 307 306 306 306 306 306 305 305 304 304 304 304 304 305 306 307 308 310 312 314 314 314 315 317 318 319 321 322 322 323 322 320 320 321 322 320 317 316 316 316 317 318 319 319 318 318 319 320 320 320 319 319 320 322 323 325 328 330 332 334 336 337 338
308 308 308 307 306 306 306 306 307 307 307 306 304 303 303 303 302 302 302 302 301 301 302 302 303 303 303 304 306 308 310 311 312 313 314 316 317 319 321 322 322 323 322 320 320 321 321 320 318 317 316 316 316 317 318 318 318 318 319 319 319 319 318 317 318 318 319 321 322 324 325 327 329 330
Wind_Speed
9 10 10 9 9 10 9 9 10 13 17 19 21 21 20 21 24 28 32 35 36 34 33 32 30 27 26 26 24 23 23 24 24 26 29 34 38 39 37 35 35 36 36 37 37 37 36 34 35 35 36 37 38 38 37 37 38 38 37 37 36 36 37 37 37 36 35 33 32 31 30 29 29 28
9 10 10 10 10 11 9 8 9 14 18 21 22 21 21 21 22 25 29 34 36 35 36 35 33 31 30 28 27 26 25 24 23 23 25 28 32 34 33 33 34 35 36 36 37 37 35 34 35 35 35 37 38 39 38 38 38 38 38 38 37 37 37 37 37 37 36 34 33 32 31 30 30 30
10 10 9 9 10 11 10 8 10 14 17 20 21 20 21 21 22 24 26 31 35 34 36 39 38 36 34 31 29 28 28 28 26 25 25 25 26 29 31 33 34 35 34 35 36 35 33 31 32 33 34 36 38 39 39 39 39 39 39 39 38 38 38 38 38 38 37 35 34 33 33 32 31 31
12 11 10 9 10 11 11 10 11 14 16 18 19 20 21 22 23 25 25 30 35 34 33 36 38 36 36 34 32 30 30 30 30 29 29 27 26 28 30 31 33 35 35 34 34 33 31 30 30 31 32 35 37 39 39 39 38 38 38 38 38 38 38 38 38 39 38 36 35 35 34 33 32 32
13 12 12 11 11 11 12 12 13 14 16 17 19 20 21 22 23 25 27 31 36 36 34 34 35 34 34 35 34 32 31 31 31 32 33 30 28 29 29 30 31 33 35 35 35 35 33 32 32 32 33 34 36 38 39 39 39 38 38 38 38 38 38 38 38 38 38 37 36 36 35 34 33 32
14 13 13 13 13 12 12 12 14 16 16 17 19 20 21 22 24 25 28 32 35 38 37 37 37 34 32 33 34 32 31 30 29 31 34 33 30 29 30 31 32 33 34 37 38 38 36 34 33 34 36 37 36 37 39 40 41 41 40 40 40 40 39 39 38 38 37 37 37 37 36 35 34 33
15 14 15 16 14 13 13 14 15 17 17 18 19 20 22 24 25 26 29 32 34 36 37 38 39 37 34 32 32 31 30 30 28 29 33 35 34 32 31 31 32 33 34 36 38 38 36 35 34 35 37 37 37 37 38 40 41 42 41 41 41 41 40 39 38 38 37 37 37 37 36 35 34 33
15 15 16 17 16 15 16 17 18 18 18 19 20 22 23 25 27 28 29 32 33 33 35 39 39 37 35 34 32 30 30 30 29 29 31 35 37 37 35 33 33 33 33 34 36 37 37 36 35 35 35 35 35 37 38 39 40 41 41 41 41 41 40 39 38 38 37 37 37 37 36 35 34 33
16 16 16 16 15 15 17 19 20 20 20 22 24 25 26 26 28 30 31 33 34 33 35 39 40 35 33 34 31 29 29 31 30 30 30 32 36 37 37 37 36 35 34 33 34 36 37 37 35 34 33 33 33 35 37 39 40 41 41 41 41 40 39 38 37 37 37 37 37 36 35 34 34 33
17 17 16 15 14 16 19 20 21 21 22 24 26 27 27 27 28 30 33 34 35 34 36 39 39 36 32 32 30 27 27 29 29 29 29 31 33 36 36 36 36 37 37 36 36 36 37 36 36 34 34 34 34 34 36 38 40 41 41 40 40 39 39 37 37 36 36 36 36 35 35 34 33 33
17 17 16 15 15 17 19 20 20 21 22 25 26 26 26 26 27 30 33 35 35 36 38 39 38 37 33 30 29 26 25 26 28 28 29 31 32 34 36 36 36 36 38 39 38 38 38 38 38 37 36 36 36 36 36 38 40 40 40 40 39 39 39 38 37 37 36 35 35 35 34 34 33 32
17 16 14 14 15 17 18 19 20 21 23 24 25 24 24 25 27 29 32 35 36 37 38 38 38 37 34 30 28 26 25 26 28 28 29 31 33 34 36 37 36 36 37 38 39 38 38 39 39 39 38 38 38 38 37 37 39 40 40 40 39 39 38 38 38 37 36 35 35 35 34 33 32 31
17 15 14 14 16 17 18 19 20 21 22 23 23 23 24 25 26 29 32 34 35 36 37 37 37 35 34 32 29 27 26 26 28 27 28 31 33 34 36 37 37 37 37 38 40 40 39 39 39 40 40 39 38 39 39 39 39 40 40 39 39 38 38 38 38 37 37 36 35 34 33 32 31 29
17 15 14 15 17 18 18 18 18 20 21 22 22 22 24 25 26 29 30 31 34 36 36 37 35 34 33 32 31 30 28 27 27 28 29 31 31 32 36 38 38 39 40 40 41 41 39 38 39 40 40 39 39 40 40 40 40 39 39 38 38 37 37 37 37 36 36 35 34 34 33 31 29 27
16 15 15 16 17 18 17 17 16 17 19 19 20 21 23 23 25 27 27 29 33 35 36 36 34 33 34 33 32 32 31 29 28 28 29 30 31 31 34 37 38 39 40 40 42 42 40 38 38 39 40 39 39 41 41 40 39 38 37 37 36 36 36 35 35 35 35 35 34 33 32 30 27 26
15 14 15 16 16 16 16 16 15 15 16 17 19 21 22 23 23 23 23 27 32 34 35 36 35 34 34 34 33 33 33 32 30 29 29 30 31 31 33 35 38 38 37 37 40 42 40 38 38 39 40 38 38 40 40 39 39 38 36 34 34 34 34 34 35 35 34 34 33 33 31 28 26 25
14 13 15 16 16 15 15 15 15 15 16 17 19 21 22 22 21 19 20 24 29 32 34 36 36 34 33 33 33 33 33 33 32 32 31 30 30 32 34 35 36 37 36 35 37 40 39 38 37 38 38 36 37 39 39 38 38 38 36 34 33 32 33 33 33 34 34 33 33 32 30 29 27 26
14 13 14 16 17 15 14 13 14 15 16 18 20 21 22 22 19 17 19 23 27 31 33 35 36 34 32 32 32 31 30 31 32 33 33 31 31 33 35 34 34 36 38 36 35 38 38 35 35 37 37 36 35 37 38 37 37 37 37 36 34 32 32 32 32 32 32 33 33 32 31 30 29 27
15 14 14 16 17 17 15 14 15 17 18 20 21 22 23 22 19 17 18 21 26 30 32 34 35 34 32 32 31 29 29 29 30 32 34 34 34 33 34 35 35 35 38 38 35 37 37 34 34 36 36 35 35 34 35 36 36 37 38 37 36 34 33 32 31 31 32 33 33 33 33 32 32 30
16 15 15 15 17 18 16 15 17 19 20 21 21 22 23 22 19 18 18 20 25 29 32 33 33 33 33 33 32 30 28 27 27 29 34 36 37 35 34 36 36 34 36 38 36 37 37 34 34 36 35 34 35 34 34 35 35 36 37 36 36 35 34 33 32 32 33 33 34 34 34 34 33 33
17 16 15 16 17 17 17 17 18 19 20 21 20 22 23 22 21 20 19 21 24 27 30 32 32 33 35 36 35 33 29 26 24 25 32 38 38 38 36 36 36 34 34 36 35 36 37 34 34 36 35 34 35 33 33 34 34 35 36 36 35 35 34 33 32 31 33 34 34 35 35 35 35 34
16 16 16 15 16 16 17 17 17 18 20 20 20 22 23 23 23 22 20 22 26 27 29 32 34 36 36 37 37 36 31 25 22 24 32 38 38 39 39 37 36 35 34 33 33 34 36 35 33 34 33 33 35 34 32 32 33 34 35 36 35 34 33 33 32 31 31 32 33 33 34 34 34 33
16 16 16 15 15 16 16 15 16 18 20 20 20 21 23 24 25 23 21 23 27 29 31 33 38 40 38 36 38 38 34 26 21 21 27 35 38 39 42 39 36 35 35 33 32 33 34 34 33 34 33 32 33 33 31 30 31 32 33 34 34 33 33 33 33 32 31 32 32 32 33 33 32 32
17 16 16 15 14 15 15 14 16 18 21 21 21 21 23 24 25 23 21 23 26 28 29 32 39 42 39 37 39 41 39 31 22 18 22 30 35 38 41 40 38 38 37 33 31 31 33 32 32 34 33 31 30 28 28 28 28 29 30 31 32 32 32 33 34 33 33 33 33 33 33 33 32 32
19 17 17 16 15 15 15 14 16 19 20 20 21 21 23 24 24 22 22 23 25 25 27 31 37 41 41 40 41 42 42 38 26 17 18 23 30 36 41 43 40 40 39 34 29 29 30 30 30 30 31 31 31 28 26 25 26 27 29 29 30 31 31 32 33 33 33 34 35 35 33 32 32 32
19 17 17 17 15 14 13 13 15 17 17 17 19 20 22 23 23 21 21 22 23 23 26 30 35 41 43 42 43 43 43 42 31 18 17 20 24 32 41 45 42 40 39 34 29 27 27 26 26 27 28 30 31 30 27 24 24 25 27 28 29 30 30 31 31 31 33 34 34 33 31 30 31 31
18 17 17 17 14 13 12 12 13 14 14 15 17 19 20 21 21 21 21 22 22 22 25 29 34 42 43 42 44 45 44 43 37 22 17 19 21 26 37 43 44 41 38 33 29 27 27 26 24 25 27 29 29 30 29 25 24 26 27 27 28 30 30 30 30 30 31 31 31 29 29 29 30 30
19 18 17 15 13 12 11 11 12 13 13 15 17 18 18 19 20 21 21 21 20 20 22 27 34 41 43 42 43 45 44 44 41 28 16 20 21 23 30 38 41 40 37 34 32 29 27 27 25 23 25 27 28 29 29 27 25 25 26 26 27 29 30 30 30 31 31 29 28 28 28 29 29 30
18 16 15 14 12 11 10 10 10 12 14 15 17 17 17 17 18 18 20 20 18 17 19 25 33 39 41 42 42 43 44 45 44 31 14 19 21 20 24 31 35 36 36 35 35 33 30 28 27 26 26 27 28 27 28 28 28 26 26 27 27 28 29 30 31 31 31 30 29 29 29 29 29 30
16 14 13 12 9 8 7 8 10 12 14 16 16 15 14 15 16 17 20 20 18 16 17 23 31 36 38 41 42 43 45 47 47 38 17 12 21 20 22 27 30 32 34 34 35 36 34 30 27 27 27 27 28 28 27 28 29 28 27 28 28 27 28 30 32 32 31 30 29 28 29 30 29 29
13 11 10 7 5 5 5 7 10 12 14 14 13 12 12 14 16 16 18 19 16 14 15 21 27 31 34 39 42 44 46 48 50 47 30 4 18 22 21 24 26 27 30 33 34 34 35 33 30 28 28 28 28 26 25 25 26 26 26 27 28 28 28 28 30 31 29 28 27 27 27 28 29 29
10 8 5 3 3 4 5 8 11 11 11 11 11 11 11 13 15 15 16 17 16 15 15 19 24 27 31 36 40 42 44 46 49 51 44 21 5 20 23 23 25 24 25 29 33 34 35 35 33 32 31 29 28 25 23 22 23 22 24 26 27 28 28 26 26 27 26 24 24 24 25 27 28 29
6 4 4 5 4 5 7 9 11 10 9 9 9 10 11 13 15 16 16 17 18 18 16 17 21 25 30 35 38 41 43 44 46 51 52 41 19 5 15 17 21 25 25 26 30 34 35 35 34 34 33 30 27 25 24 24 23 22 22 24 25 26 27 26 24 24 25 24 24 23 23 24 26 27
4 4 6 7 6 7 9 10 8 8 8 9 9 11 12 13 15 16 17 17 18 19 18 16 17 21 26 31 35 39 42 42 44 48 51 49 41 26 15 8 2 14 23 29 32 33 34 35 33 32 32 30 27 25 26 26 23 20 20 21 21 22 24 25 25 25 25 25 25 24 22 22 22 23
5 7 8 8 8 8 8 7 5 6 7 9 11 12 13 14 15 15 16 17 17 19 18 16 15 17 21 26 30 34 38 39 40 44 47 49 48 44 39 32 24 13 3 19 31 32 32 35 35 33 31 30 26 24 24 23 21 19 19 20 20 20 21 23 25 27 28 27 25 24 22 21 21 22
7 9 9 9 8 6 5 3 4 6 8 10 12 14 14 15 14 14 14 15 16 17 17 16 15 16 17 20 24 28 33 36 37 39 42 46 47 46 44 43 39 33 25 9 17 30 32 34 38 37 34 31 28 25 23 22 21 20 20 20 20 21 21 22 25 28 31 31 28 26 24 22 22 21
9 10 9 8 6 4 3 4 5 7 8 10 12 13 14 14 13 11 12 13 14 14 15 15 15 15 16 17 19 22 25 29 33 36 37 39 43 43 44 45 43 39 37 31 14 15 24 30 38 40 37 34 31 27 23 21 20 21 20 19 20 21 21 23 26 30 33 33 30 28 26 23 20 19
10 9 8 7 5 4 4 5 6 7 7 8 10 11 11 11 11 10 11 12 13 13 13 13 14 15 15 16 17 18 19 23 28 32 33 34 38 41 41 41 42 40 39 37 31 22 17 20 29 32 31 31 29 25 23 21 19 20 21 20 20 21 22 24 27 30 33 33 30 28 26 21 17 17
9 8 7 6 4 4 4 5 5 5 5 6 7 8 9 10 11 11 11 12 13 13 13 12 13 14 14 15 16 15 17 20 24 27 29 30 32 35 36 36 37 38 38 36 34 33 31 27 21 16 16 20 21 20 21 19 16 18 22 20 17 19 21 23 26 29 32 33 31 28 25 21 18 19
7 7 6 5 3 4 4 4 4 3 3 3 5 6 8 9 10 11 12 13 13 14 14 13 13 12 13 14 15 14 14 17 19 20 23 26 27 30 32 32 32 33 35 36 34 32 32 32 30 26 21 18 17 18 19 17 14 14 17 17 18 21 22 21 23 27 30 31 32 31 28 24 22 23
6 6 5 4 5 5 5 4 3 3 2 1 3 4 6 8 10 11 11 12 13 14 14 14 14 14 13 13 15 15 14 15 16 16 17 20 23 24 25 27 28 29 30 32 33 32 30 28 26 26 26 24 22 25 27 26 22 17 14 11 12 19 23 23 25 29 31 31 32 34 32 28 26 26
6 6 5 5 6 6 4 3 2 2 1 2 3 4 6 7 9 10 11 11 12 13 14 14 14 14 14 13 14 15 15 16 16 16 15 15 16 18 20 21 24 25 26 26 27 27 27 26 25 25 25 25 25 28 32 32 30 29 28 26 20 14 12 12 14 19 28 34 36 34 32 29 28 28
7 6 5 4 4 4 3 2 2 2 2 4 5 6 7 9 10 11 12 12 11 12 12 13 12 13 14 14 14 14 15 16 16 16 15 14 13 14 16 17 18 19 21 21 20 20 22 24 27 27 27 27 29 31 32 30 29 28 28 27 26 25 23 23 23 20 15 20 27 30 33 35 33 31
7 7 6 4 3 3 3 4 4 4 5 7 8 9 10 10 10 11 12 11 11 10 10 10 11 11 12 13 13 13 13 15 16 15 15 15 14 13 13 13 14 15 16 16 16 16 17 20 23 26 27 27 27 28 28 27 27 26 25 25 25 26 26 25 25 27 28 26 20 17 21 28 31 31
7 7 6 5 4 3 4 5 6 7 8 10 10 10 10 10 9 9 9 9 9 8 8 8 9 10 12 13 13 13 13 13 14 14 15 15 14 14 13 12 13 13 14 14 15 15 14 14 17 20 22 23 24 25 26 26 26 24 23 25 26 26 26 25 23 23 28 31 30 27 25 24 24 25
Wind_Direction
332 332 330 330 334 338 341 340 341 349 351 349 349 343 335 329 322 317 314 311 309 308 307 305 301 301 300 292 286 284 281 279 275 268 260 254 250 246 246 250 253 255 256 252 247 244 243 242 240 240 242 243 245 246 247 248 249 250 250 251 251 251 252 253 254 255 256 257 257 257 258 259 260 262
326 323 319 318 322 328 336 343 348 352 351 353 356 351 341 334 327 320 313 307 306 306 304 303 300 299 298 294 285 277 273 275 276 273 266 258 253 251 252 254 255 255 254 250 246 243 241 242 241 240 241 243 243 245 246 247 249 250 250 251 251 252 253 254 255 255 256 256 257 256 256 258 261 262
324 319 311 307 313 319 327 338 345 348 352 356 359 354 346 340 332 328 321 311 308 309 306 303 301 298 295 292 286 276 267 264 266 268 267 262 258 257 257 257 254 252 251 247 243 239 237 239 241 241 243 243 243 243 244 246 248 249 250 251 251 251 252 253 255 255 255 255 255 255 256 258 260 262
316 315 310 300 302 311 315 323 334 341 348 355 0 357 350 345 336 330 329 322 317 318 315 308 304 300 295 290 285 279 268 260 259 263 264 265 263 260 258 256 254 252 249 245 241 238 236 238 240 243 245 245 243 242 243 245 246 247 249 250 250 251 251 252 253 254 254 254 253 253 254 256 259 261
307 311 310 299 295 302 307 316 324 331 340 349 357 359 354 350 344 335 332 329 325 325 323 317 312 306 298 289 283 281 274 263 258 259 260 261 264 263 259 256 255 253 250 246 243 241 240 240 241 246 249 248 246 244 243 244 245 245 247 249 250 251 251 252 252 253 253 252 251 252 253 255 257 259
305 310 309 302 297 296 299 307 313 320 331 341 350 357 356 351 348 343 337 334 330 327 327 325 320 315 307 292 282 281 279 271 263 259 256 254 258 261 260 258 257 257 254 249 245 244 244 243 244 249 251 250 247 245 244 244 244 245 246 248 249 250 251 252 252 252 251 250 249 250 252 254 256 258
306 308 307 304 302 298 294 297 304 312 322 332 341 350 353 349 345 343 339 335 331 327 327 327 324 320 315 299 283 279 280 276 269 262 255 251 252 254 256 257 257 257 258 253 247 246 246 246 246 250 251 249 246 245 245 245 245 245 246 246 247 248 250 251 251 251 250 248 247 248 251 253 255 257
305 303 301 301 301 299 293 293 299 305 313 323 329 334 339 342 341 339 336 334 331 323 322 327 326 320 316 306 288 278 279 278 273 266 258 253 252 252 252 253 254 255 258 255 249 247 248 248 247 249 250 249 246 244 244 245 245 245 245 245 245 246 247 249 250 250 248 246 245 246 249 252 254 256
305 304 302 300 301 298 292 291 295 299 308 317 320 320 324 330 333 335 334 332 330 323 320 325 325 319 316 311 296 279 276 279 277 271 264 257 254 253 252 252 252 253 256 254 249 246 247 246 246 247 249 250 249 247 245 246 245 244 243 244 244 244 245 247 249 248 246 244 244 246 248 250 252 254
311 311 309 305 299 292 289 289 290 293 302 312 315 314 317 322 325 330 333 331 329 326 324 327 326 321 319 315 302 285 276 277 277 274 268 261 256 253 253 252 251 252 253 252 247 245 246 246 246 248 249 250 250 249 248 246 245 243 243 243 243 243 243 245 246 246 244 243 243 245 247 249 251 252
316 312 307 301 296 295 297 295 290 289 295 304 310 314 317 319 320 325 330 330 328 328 327 327 327 324 321 317 306 291 280 275 271 270 269 265 257 252 250 250 250 251 252 252 250 249 250 250 249 249 250 251 251 249 248 247 245 243 242 242 241 242 242 243 243 243 243 242 242 244 245 247 249 250
313 308 306 303 304 307 307 302 295 292 294 299 309 317 318 318 318 322 326 328 329 330 327 327 328 325 321 318 311 299 290 282 272 267 268 267 262 255 251 250 251 252 253 253 254 253 253 253 251 249 250 251 250 248 246 246 245 243 242 241 241 241 241 241 241 241 242 241 241 242 243 245 247 247
312 310 309 308 309 309 306 301 297 295 296 301 310 317 316 316 318 320 324 329 332 332 329 327 327 323 319 318 315 307 299 291 280 271 269 269 266 262 258 253 250 250 251 253 255 254 253 253 252 250 248 247 247 246 243 243 243 241 240 241 240 240 240 239 240 240 241 240 239 239 241 242 243 245
317 314 311 309 308 307 305 302 297 295 296 302 311 313 312 315 318 320 325 334 337 335 332 329 325 320 316 316 316 310 304 297 284 274 271 271 270 266 262 258 252 249 250 252 253 252 252 253 252 248 245 246 247 246 242 241 241 240 240 241 240 239 238 238 238 239 238 237 237 237 238 239 240 243
322 320 317 315 312 311 311 307 300 296 297 303 308 308 309 315 318 321 329 338 338 335 333 330 326 321 317 315 314 310 306 301 290 278 272 272 271 268 263 260 256 252 251 252 252 251 250 252 252 247 245 246 247 246 243 241 240 239 239 240 240 240 238 237 237 236 235 235 235 236 236 236 238 241
323 325 325 324 321 318 317 313 308 303 302 305 306 306 309 315 318 323 334 338 337 335 332 330 328 326 321 316 312 308 304 300 292 281 271 267 269 269 264 261 257 255 254 253 252 252 250 250 252 249 246 246 246 245 243 241 239 237 237 239 240 240 238 237 236 235 234 234 234 234 234 235 238 241
320 325 327 328 327 324 320 317 314 310 307 308 308 307 311 316 318 325 337 341 340 338 334 331 329 327 323 317 310 305 301 295 289 281 270 262 264 266 264 261 259 256 255 254 253 253 252 251 252 249 246 246 247 244 242 240 238 237 237 239 240 240 239 238 236 236 235 234 233 233 233 235 238 242
314 319 324 328 331 329 325 323 320 314 312 313 312 312 315 317 319 325 336 341 342 341 338 334 331 328 324 319 314 309 303 294 286 279 269 259 258 262 262 262 262 257 253 253 252 252 251 250 250 249 247 248 248 244 242 241 238 237 239 241 240 239 238 238 238 237 235 234 233 233 234 237 240 244
312 313 317 326 332 332 328 328 324 318 316 317 315 315 318 318 317 323 333 340 343 343 340 336 334 333 331 329 324 317 308 299 288 278 269 259 254 257 260 260 259 255 250 247 247 248 248 248 248 248 248 248 248 246 244 242 239 238 240 241 240 239 238 238 238 237 234 234 234 235 237 240 243 246
310 308 312 323 330 330 326 324 320 315 315 317 316 318 319 317 314 318 326 336 343 344 341 336 337 339 340 338 334 327 316 304 291 278 270 260 251 248 253 256 255 252 248 242 241 244 246 245 247 249 249 247 248 249 246 243 241 240 240 239 238 238 238 238 238 238 237 236 236 237 239 243 245 247
308 306 312 319 323 326 324 318 313 310 312 315 317 318 318 315 312 315 322 330 338 341 340 336 335 336 340 342 340 336 326 312 299 282 267 259 251 243 243 249 250 249 246 240 239 243 244 244 246 249 248 247 247 248 247 244 243 242 241 240 238 237 237 237 237 238 238 237 238 239 241 244 246 248
307 306 311 313 315 321 320 313 309 309 312 315 317 318 316 313 313 317 323 329 334 335 336 337 337 336 338 342 342 340 335 320 306 287 264 255 251 241 234 238 245 245 244 242 239 241 243 243 244 245 243 245 248 247 246 246 246 245 244 242 240 237 236 236 236 237 238 239 240 241 243 244 246 247
310 308 308 306 310 318 316 309 308 310 312 314 316 317 316 316 317 319 322 327 330 332 334 341 345 343 343 345 345 345 342 328 309 289 263 250 247 240 230 230 237 238 239 239 237 237 241 241 241 240 239 243 247 245 242 243 245 245 244 242 240 238 236 234 233 234 237 241 243 244 243 244 246 247
313 309 306 302 306 314 311 308 310 310 309 311 315 317 317 318 318 316 317 322 325 330 336 342 346 347 347 348 348 347 347 339 318 289 261 247 244 238 227 225 231 234 234 236 236 236 238 239 239 239 238 240 245 245 243 243 243 241 240 239 238 236 235 233 232 232 235 240 242 243 243 244 246 246
312 308 304 300 304 311 309 309 312 311 309 309 312 316 318 318 315 310 312 319 322 329 339 343 346 350 350 350 350 349 349 346 331 295 263 249 243 236 225 221 226 232 232 233 236 237 236 236 237 237 236 237 240 244 246 247 243 240 238 237 237 235 234 234 233 231 233 237 240 243 245 246 246 246
309 304 300 298 304 310 308 310 312 310 309 310 312 316 319 318 317 311 309 315 320 330 341 344 351 356 353 350 352 352 351 350 342 308 265 252 243 234 225 220 222 228 228 228 232 235 233 234 236 235 234 236 239 240 241 243 243 240 238 237 237 236 236 237 236 234 235 238 241 244 246 246 245 246
307 302 299 299 307 310 305 307 309 307 310 313 314 317 320 322 324 318 312 313 318 328 339 347 356 1 356 352 355 356 354 353 348 324 271 248 242 234 226 222 222 226 228 228 230 232 232 233 236 236 235 238 240 238 235 237 241 242 240 237 236 237 237 238 238 237 237 239 242 243 243 242 243 244
304 301 300 303 309 309 303 302 303 306 312 315 316 318 320 324 328 325 323 325 323 325 337 351 1 4 358 355 359 1 359 358 354 337 284 244 237 233 226 224 225 228 229 227 227 229 232 231 232 235 237 239 240 241 240 239 238 240 241 239 236 236 236 237 238 236 234 236 239 240 240 241 242 241
301 301 302 306 309 304 298 296 299 307 313 315 319 324 324 328 334 338 343 346 340 334 344 358 6 6 360 358 4 7 4 3 2 353 306 240 230 229 227 226 228 230 230 227 225 227 231 231 230 231 234 237 241 245 246 242 237 236 241 243 242 240 238 236 236 235 233 234 238 241 242 243 242 240
299 299 301 306 304 295 293 294 298 306 311 315 325 334 336 341 346 349 354 357 353 349 353 2 10 11 2 359 7 13 11 9 9 9 354 241 221 221 224 225 228 231 231 228 227 228 230 231 230 229 230 235 240 243 244 242 237 235 238 244 246 245 240 235 233 232 232 235 239 242 242 241 240 239
294 297 300 301 291 284 291 296 299 306 312 320 333 344 348 354 356 355 359 1 359 357 357 3 12 13 4 359 5 14 16 14 14 18 20 328 217 215 219 224 227 230 230 229 230 230 229 230 229 228 228 231 235 238 239 238 235 232 234 240 243 243 239 232 227 227 230 234 239 240 238 236 235 234
294 297 291 270 259 268 282 293 300 307 315 327 341 350 357 2 1 359 1 3 2 1 360 2 8 11 8 5 6 11 16 17 18 23 29 32 210 214 216 221 226 228 228 227 228 229 231 231 229 228 229 230 232 235 235 232 232 232 233 236 238 238 235 228 223 223 227 231 234 234 232 232 234 233
292 274 244 231 239 260 278 293 304 311 320 332 344 354 1 3 2 1 2 4 6 5 1 0 3 7 12 13 11 12 15 19 23 27 30 35 44 185 213 220 226 227 226 225 225 225 227 228 226 226 227 227 229 236 238 236 235 234 231 230 232 232 230 226 223 225 227 230 231 231 230 232 233 233
246 221 227 234 245 268 287 300 311 321 329 336 345 355 1 1 1 3 3 5 9 9 6 1 358 4 14 19 18 16 14 18 26 29 29 33 41 47 49 48 208 220 221 223 224 224 225 223 219 219 222 224 228 235 238 236 232 227 223 224 228 230 228 226 226 227 229 232 233 230 229 231 231 229
226 224 232 245 262 281 294 303 318 335 340 338 340 348 355 358 359 2 4 5 7 10 14 9 357 0 15 21 23 22 17 16 25 31 29 30 36 40 43 44 46 51 169 212 213 214 219 222 218 213 214 219 221 221 222 223 218 216 220 225 230 233 230 228 227 227 228 231 231 230 231 233 232 228
235 239 248 266 281 287 289 299 327 341 341 339 338 341 347 353 355 359 3 3 1 6 15 14 3 2 11 16 21 26 23 18 22 30 31 30 30 34 39 42 43 44 47 73 188 198 204 211 215 213 209 208 206 202 204 211 214 219 228 235 237 236 233 230 228 224 224 226 227 228 232 234 234 234
241 249 263 279 285 280 281 301 322 331 334 337 337 338 342 350 355 358 0 0 359 4 13 17 12 10 10 10 16 23 24 22 24 27 30 31 29 29 32 36 39 41 42 48 78 167 182 191 202 207 205 201 200 200 202 209 218 225 230 235 236 234 231 231 229 224 222 224 224 225 229 233 235 236
243 254 270 283 284 282 299 316 326 328 330 333 335 337 343 354 1 3 3 2 0 2 7 12 16 16 14 15 20 21 21 25 29 27 24 28 32 31 29 30 34 37 40 45 54 70 102 148 179 193 197 195 197 203 208 209 214 223 226 227 230 232 230 230 229 223 220 222 223 225 226 225 221 219
250 267 279 285 286 293 310 320 318 316 323 336 343 346 353 0 4 7 9 8 6 4 3 5 12 19 20 22 28 31 27 28 32 29 22 23 31 35 31 27 28 33 37 43 50 55 64 84 110 138 164 177 185 197 206 203 200 214 223 224 226 230 230 229 228 224 220 219 219 220 219 211 201 199
261 277 284 281 275 282 294 296 291 290 314 356 6 2 359 0 3 7 10 10 10 10 9 6 8 15 21 25 30 37 37 32 32 31 26 24 29 34 33 30 28 30 34 40 46 50 56 65 74 84 95 110 127 143 151 147 151 186 210 215 218 222 224 223 224 224 221 218 215 211 205 197 192 190
262 270 271 264 263 268 267 260 259 272 292 0 23 15 4 359 360 3 6 6 7 10 12 12 10 12 18 24 27 32 38 36 33 32 31 30 31 33 33 32 31 29 30 35 40 45 52 61 72 82 87 91 101 110 108 99 94 101 111 128 175 204 212 214 217 217 217 217 214 206 198 192 189 187
243 254 254 248 249 255 254 242 242 265 306 345 3 3 358 352 350 349 352 355 357 359 5 11 14 15 18 22 23 26 34 37 35 32 33 33 34 35 33 31 32 32 32 32 34 38 46 58 68 75 80 84 88 88 83 75 71 74 79 82 90 111 141 160 177 194 205 209 208 200 192 188 184 181
227 250 259 251 242 242 252 259 252 263 317 333 337 339 338 337 336 334 334 339 344 348 355 4 13 19 23 24 23 22 28 35 36 35 35 33 32 34 33 32 34 37 37 35 32 30 36 49 59 64 67 73 78 81 81 77 73 70 70 71 73 75 79 84 86 91 127 175 190 192 190 188 184 177
224 243 250 246 236 239 261 281 288 305 327 331 331 331 330 328 327 324 321 325 334 341 349 359 9 18 23 24 23 22 25 31 34 36 37 37 35 36 38 38 39 42 43 38 32 28 31 44 55 60 65 71 77 82 83 82 79 76 72 71 70 68 68 71 71 70 75 87 103 127 155 169 172 171
226 237 241 236 236 254 272 289 307 323 330 330 331 332 331 330 329 326 323 328 337 346 356 4 11 21 25 22 20 20 21 24 28 32 36 38 39 41 45 46 45 48 49 44 38 35 34 40 49 55 61 68 74 79 81 80 79 79 78 77 75 72 68 66 65 64 68 73 76 79 88 103 120 131